170P/Christensen

Epoch 2006 Jan. 25.0 TT = JDT 2453760.5  

T 2006 Jan. 26.70505 TT                                 Nakano

q   2.9299404            (2000.0)            P               Q

n   0.11417117     Peri.  225.43591     +0.98241646     -0.15388621

a   4.2082197      Node   143.03536     +0.17684831     +0.94853330

e   0.3037577      Incl.   10.12605     -0.05985460     +0.27677359

P   8.63 (+/- 0.02 day)

From 89 observations 1997-2005, mean residual 0".68.

Residuals in seconds of arc 

1997/                     050804 644  0.1+  0.4-    050829 699  0.7-  1.3-  

971031 566  1.0-  0.3-    050805 644  0.1+  0.0     050829 699  0.1-  0.4-  

971031 566  0.3+  0.1+    050805 644  0.0   0.0     050829 615  0.5-  0.8-  

971031 566  0.8+  1.2-    050805 644  0.2+  0.4-    050829 615  0.2-  1.3-  

971130 566  0.3+  1.3-    050806 644  0.1+  0.2+    050829 615  0.1+  0.5+  

971227 566  0.5+  0.8-    050806 644  0.6+  0.4-    050830 615  0.2-  0.5-  

2005/                     050806 644  0.1+  0.2-    050830 615  0.3-  0.2-  

050617 G96  0.6-  0.9-    050808 D74  0.2-  0.1+    050830 615  0.7-  0.2+  

050617 G96  0.5-  0.8-    050808 D74  0.9-  0.5+    050905 703  0.1-  1.1+  

050617 G96  0.1-  0.9-    050808 D74  0.4-  0.8+    050905 703 (3.1-  0.4-) 

050617 G96  0.1+  1.2-    050808 A79 (4.1-  2.7-)   050905 703  1.8-  0.1+  

050618 734  0.6-  0.2-    050809 A79 (3.0-  8.2-)   050905 703  0.1-  1.0-  

050618 734  0.3-  1.6-    050811 673  0.2-  0.1-    050905 215  0.9-  0.5-  

050618 734 (2.8-  2.2-)   050811 673  0.3+  0.0     050906 415  0.3+  0.1-  

050618 G96  0.1+  0.2-    050811 673  0.4+  0.2+    050906 415  1.0+  0.1+  

050618 G96  0.3+  0.5-    050811 673  0.3+  0.1+    050909 D83  0.2-  0.5+  

050618 G96  0.6+  0.1-    050817 673  0.2-  0.0     050909 D83  0.8-  0.0   

050618 G96  0.7+  0.2-    050817 673  0.0   0.7+    050909 D83  1.1-  0.3+  

050619 474  1.2-  0.6-    050817 673  1.4-  0.1+    050929 415  0.7+  0.8+  

050619 474  0.8-  0.9-    050817 673  1.2+  0.6+    050929 415  1.0+  0.5+  

050619 474  1.6-  1.3-    050825 213  0.6-  1.5+    050930 G96  0.5+  0.7+  

050619 474 (0.4-  2.2-)   050825 213  0.3-  1.3+    050930 699  0.5+  0.4-  

050630 G96  0.3-  0.7-    050825 213  0.6-  0.6+    050930 G96  0.7+  0.7+  

050630 G96  0.6-  0.8-    050827 644  0.1+  0.2+    050930 G96  0.6+  0.6+  

050703 413  0.1+  0.6-    050827 644  0.3+  0.1+    050930 699  0.8+  0.1+  

050703 413  0.2-  0.4-    050827 644  0.3+  0.1-    050930 699  0.6+  1.5+  

050704 413  0.1-  0.8-    050829 704  0.2-  0.2+    050930 699  1.6+  1.0+  

050704 413  0.1-  0.8-    050829 704  1.2+  0.5+    050930 415  0.5+  0.8+  

050726 213  0.5+  0.6-    050829 704  0.7+  0.6+    050930 213  0.4+  1.5+  

050727 213  0.0   0.2-    050829 704 (0.4-  3.2+)   050930 213  0.6+  1.2+  

050727 213  0.4-  0.4+    050829 704  1.4+  0.1+    050930 213  0.8+  1.2+  

050804 644  0.5+  0.1+    050829 699  0.7-  0.0                             

050804 644  0.1+  0.1-    050829 699  0.5-  0.9-                            



NAKANO

         **** Don't distribute anyone except personal use only ****

                (C) Copyright 2005 OAA/ComputingSection

write mail from CFAD0::NAKANO on 2005-11-03 23:22:12(JST).





 170P/Christensen (2005 M1)

Epoch 2006 Jan. 25.0 TT = JDT 2453760.5  

T 2006 Jan. 26.77529 TT                                 Nakano

q   2.9297527            (2000.0)            P               Q

n   0.11417228     Peri.  225.45432     +0.98236851     -0.15419396

a   4.2081925      Node   143.03493     +0.17714504     +0.94847630

e   0.3037979      Incl.   10.12568     -0.05976415     +0.27679765

P   8.63 (+/- 0.02 day)

From 74 observations 1997-2005, mean residual 0".62.



NAKANO

         **** Don't distribute anyone except personal use only ****

                (C) Copyright 2005 OAA/ComputingSection

write mail from CFAD0::NAKANO on 2005-09-12 05:45:24(JST).

 



߂܂B